Theta_e
347 348 349 349 349 349 351 353 352 353 352 352 351 351 351 351 350 349 348 348 347 340 337 338 340 337 343 340 342 342 343 342 339 340 339 339 340 340 341 341 342 342 343 343 342 342 342 341 343 344 347 347 348 338 331 331 334 337 336 338 341 336
346 347 348 349 349 349 350 351 349 350 350 350 351 351 349 347 350 343 348 346 340 343 337 335 336 346 339 341 341 343 344 342 341 339 340 340 340 340 340 341 342 342 342 342 342 334 334 337 339 341 345 348 343 335 330 330 333 333 338 337 340 339
344 346 347 348 349 349 349 349 349 349 349 350 351 350 345 347 342 342 343 342 342 340 339 338 340 343 343 345 342 344 343 343 343 342 340 340 340 340 341 341 342 342 343 343 335 328 327 326 327 338 343 340 336 335 334 331 332 332 336 336 338 342
342 343 344 346 348 349 349 349 349 348 347 347 347 347 344 343 342 342 343 341 341 341 341 339 346 348 348 341 340 345 344 344 343 343 342 342 342 341 341 342 342 343 342 337 327 325 326 325 327 330 334 335 335 335 333 332 332 331 333 338 338 343
342 343 343 344 346 347 348 348 348 348 346 345 344 344 343 342 342 342 342 342 341 342 341 338 339 341 341 337 333 334 335 335 336 333 343 332 330 335 335 332 332 335 334 332 330 326 324 325 327 329 332 334 335 334 333 334 334 333 333 335 339 344
340 341 342 343 344 347 347 346 346 346 346 344 344 343 342 341 342 342 342 342 343 342 342 338 338 339 336 335 334 334 334 333 334 334 338 334 333 332 332 335 335 333 329 327 327 326 324 329 326 327 332 335 335 333 332 332 334 333 333 334 338 345
338 339 340 342 343 345 345 346 346 345 343 344 343 342 341 341 342 342 342 343 342 341 339 339 339 338 335 335 335 335 335 336 334 335 337 336 335 335 335 334 333 331 327 325 324 324 324 324 324 325 328 333 335 334 334 333 334 333 333 333 338 346
338 338 339 340 340 340 341 342 344 346 344 345 343 342 341 341 342 342 342 342 344 340 339 337 337 335 334 336 336 337 336 335 335 337 338 339 336 334 335 335 333 331 329 326 325 324 324 324 323 324 325 329 334 335 335 335 334 333 333 332 335 345
337 337 337 338 338 337 337 339 342 343 342 346 343 342 342 341 340 340 341 342 343 337 335 336 333 335 336 337 338 338 336 335 335 336 336 336 336 334 334 334 334 332 330 327 325 325 325 327 331 330 329 332 334 334 333 334 332 333 333 332 334 341
338 337 336 336 337 337 335 337 339 341 341 345 342 342 341 339 339 338 339 340 339 334 334 335 334 334 337 338 338 337 336 334 334 334 335 334 336 336 337 336 337 336 334 332 331 331 333 334 335 334 331 331 330 329 329 331 331 332 334 333 334 337
338 338 336 335 336 337 334 336 338 340 340 342 342 341 340 338 336 336 336 336 336 339 337 336 336 335 335 337 337 335 335 334 334 336 337 337 338 338 336 336 336 335 335 335 336 336 336 335 334 335 335 334 333 330 330 331 334 334 334 333 334 335
339 337 336 335 337 336 334 335 337 337 337 339 339 337 338 337 336 335 335 333 336 340 340 338 338 337 336 335 334 334 333 333 333 335 336 337 339 340 339 338 338 338 337 335 336 335 335 334 335 335 334 334 333 331 331 331 333 333 333 332 333 336
339 338 335 334 336 335 335 335 334 334 335 338 337 336 336 335 334 335 335 333 336 339 338 339 337 338 338 333 333 332 332 332 332 334 334 336 340 337 336 336 336 336 337 337 335 335 336 333 332 334 334 335 333 333 333 332 333 333 332 333 332 333
340 338 336 336 336 334 334 334 334 333 336 337 335 334 334 334 335 335 335 333 338 338 338 339 339 336 335 333 332 333 332 331 332 333 334 335 336 337 335 334 334 335 340 333 333 333 332 333 333 332 332 332 331 332 332 332 332 333 333 333 333 332
341 338 339 337 336 334 334 333 332 333 335 335 334 333 333 336 335 333 333 334 338 340 340 340 339 338 336 335 334 333 332 332 333 333 334 334 336 335 335 334 334 336 333 331 331 334 332 332 331 332 332 332 332 332 330 333 333 332 332 333 332 332
337 339 338 336 333 333 333 332 332 338 333 334 334 335 334 335 335 334 336 334 336 336 336 336 336 336 335 334 335 333 333 334 334 333 332 333 334 334 334 335 335 334 330 331 331 331 330 330 330 331 331 331 331 331 331 332 333 333 334 332 332 333
336 337 336 334 332 331 333 333 334 333 333 333 333 332 331 332 334 335 335 334 335 337 336 336 336 337 336 335 336 334 334 334 335 332 331 332 333 335 334 335 333 333 332 328 328 329 329 329 330 331 331 331 332 332 332 332 333 333 334 332 333 332
334 335 336 334 333 334 335 334 332 332 334 332 331 331 331 333 334 335 336 335 337 337 337 336 335 336 337 339 337 334 333 334 334 332 331 332 333 333 332 331 330 329 331 330 327 328 328 329 330 331 331 331 331 331 331 332 333 335 333 333 333 333
334 334 333 333 334 334 333 332 331 330 330 330 331 331 332 333 333 334 334 335 337 336 336 335 336 337 336 336 336 335 332 333 335 333 332 333 332 331 331 330 330 329 329 329 329 329 330 330 330 330 330 330 330 330 331 331 332 332 332 333 334 336
333 333 334 333 333 332 332 331 329 328 328 328 329 333 332 333 333 334 335 335 334 334 336 335 334 334 333 332 333 333 332 335 336 334 334 333 329 328 330 330 329 329 328 328 328 331 330 329 327 325 327 328 328 328 328 329 329 329 332 332 333 333
332 333 333 332 331 331 329 328 326 327 326 325 329 331 333 333 333 335 336 336 337 338 336 336 336 334 334 337 334 334 333 334 334 335 334 332 332 331 331 330 330 328 329 326 325 326 329 328 323 324 321 322 325 327 327 326 326 326 328 332 331 332
332 333 334 333 331 331 329 328 326 325 327 328 329 331 332 333 332 334 333 334 336 335 333 334 335 334 335 333 332 334 334 334 332 331 333 334 333 334 330 330 329 327 327 328 327 327 331 327 319 321 321 321 318 320 323 322 324 328 330 331 332 331
331 332 333 332 331 329 327 327 328 327 330 330 332 332 333 333 334 332 332 335 335 333 333 332 333 334 333 333 333 333 332 330 330 332 332 332 331 331 329 330 329 328 326 326 326 330 329 327 323 322 319 315 311 317 319 317 318 327 328 328 328 330
331 331 331 332 331 329 331 330 331 332 332 333 332 335 331 330 331 332 333 335 335 335 334 331 333 332 331 332 332 333 332 331 331 333 332 330 330 330 330 329 329 328 327 322 324 324 327 326 325 321 317 316 313 312 312 310 318 325 323 324 326 327
331 331 331 333 332 333 333 332 332 332 333 332 331 328 327 326 328 331 331 331 333 336 335 333 334 333 334 334 333 333 333 333 331 331 331 329 329 329 329 329 328 327 326 324 322 321 324 327 326 326 322 315 314 311 309 316 321 322 320 325 325 325
331 331 331 332 333 333 332 331 329 328 326 325 326 325 325 326 327 329 329 330 332 333 334 333 334 333 333 335 331 331 329 328 328 328 328 327 327 327 327 327 328 327 327 325 323 319 321 324 324 326 325 324 323 318 319 319 317 315 320 323 324 324
331 331 331 332 332 332 330 330 329 329 328 327 326 325 325 327 329 329 330 331 331 331 332 331 331 332 332 330 328 327 327 327 327 326 328 325 325 324 325 326 327 326 324 324 323 319 319 321 319 320 325 323 324 325 325 321 315 318 317 317 320 322
331 332 332 332 331 331 330 329 328 327 328 327 326 327 328 329 328 330 330 330 330 331 333 332 329 326 327 327 326 325 325 324 324 325 325 323 323 323 324 324 325 325 325 325 324 322 320 321 320 321 324 323 323 323 321 320 321 318 318 316 317 317
332 333 332 333 332 331 330 330 329 328 327 327 327 328 329 331 329 330 329 328 329 329 327 326 325 324 324 324 325 323 322 322 322 322 324 322 322 322 322 322 322 323 322 322 323 322 320 319 319 318 319 320 320 320 319 318 319 322 317 315 316 316
332 334 333 333 332 332 331 331 329 328 328 328 328 326 327 328 328 327 327 328 327 324 323 322 322 323 323 323 322 322 321 320 320 322 322 320 320 320 320 320 321 321 320 319 319 319 319 318 318 318 318 318 317 317 319 319 319 320 320 317 315 316
333 334 334 333 333 331 331 330 329 329 328 327 326 326 326 326 327 327 327 326 324 322 321 320 321 320 320 320 321 321 319 320 320 322 320 318 319 319 319 319 319 319 318 317 317 317 317 317 317 317 317 316 316 317 316 315 315 317 317 317 316 316
332 333 333 333 332 330 330 330 330 328 328 327 327 326 326 326 328 328 325 322 320 318 317 318 318 318 318 319 319 317 319 318 318 317 317 317 318 318 319 318 318 317 316 316 317 317 315 315 315 315 315 315 315 316 316 316 317 317 316 316 316 316
331 332 332 332 330 329 330 330 329 328 327 327 327 326 327 326 323 323 323 320 317 316 315 315 315 316 316 317 317 316 316 316 316 317 316 316 316 317 317 317 317 316 315 315 315 315 314 314 314 314 314 315 316 315 315 316 318 317 318 317 317 314
331 332 331 330 329 329 329 328 329 328 327 327 324 324 323 321 320 319 318 317 316 315 315 314 314 314 316 317 317 317 316 315 315 316 316 316 316 317 317 317 316 315 315 315 315 314 314 314 314 314 314 314 314 314 314 315 316 316 316 315 314 313
331 331 330 329 330 329 328 327 325 325 324 323 322 321 320 320 318 317 317 316 315 315 315 315 315 315 316 316 316 316 315 314 315 315 315 315 316 316 316 315 315 315 316 315 315 315 315 315 315 315 316 315 315 314 314 314 313 313 314 314 313 312
331 330 330 330 329 327 325 323 323 322 322 322 321 319 318 318 317 317 316 315 314 314 314 314 315 315 315 315 314 314 315 314 314 314 314 315 315 315 315 314 313 313 314 318 315 315 316 315 315 315 314 314 312 311 311 311 311 311 311 311 310 310
330 329 328 327 325 324 323 322 321 321 320 319 318 317 316 315 315 315 315 314 314 314 314 314 315 315 315 315 315 314 313 313 313 313 313 314 314 314 314 313 312 312 314 316 316 315 315 314 315 315 313 312 309 309 308 308 307 307 308 308 309 309
Wind_Speed
9 9 8 8 6 7 10 16 14 16 16 16 14 14 13 13 11 10 9 9 8 3 2 2 4 3 7 3 6 6 6 5 4 4 4 3 3 3 3 3 3 3 4 5 6 7 7 8 10 9 8 8 9 5 2 1 1 2 4 3 3 4
8 10 9 7 6 6 7 10 7 9 9 11 12 11 9 6 8 4 9 7 4 3 3 2 3 6 3 3 4 6 5 5 4 3 3 3 3 3 4 3 3 4 5 5 5 3 4 6 8 9 10 10 6 5 1 0 0 2 4 4 4 6
9 9 9 8 6 6 7 6 8 7 7 9 9 8 5 7 4 5 4 4 4 3 3 3 4 5 3 6 4 6 5 4 3 3 3 3 3 4 4 5 5 6 6 6 3 3 4 4 5 8 7 6 5 6 4 1 1 1 5 5 4 9
9 9 8 7 6 6 6 6 6 6 6 6 6 5 5 5 5 5 5 4 4 4 4 4 6 9 7 3 3 6 5 4 4 3 3 2 3 4 5 5 7 8 5 3 3 4 4 5 5 5 5 4 5 6 5 2 2 3 4 5 5 10
8 8 7 7 7 7 7 6 6 6 6 5 4 5 5 5 5 5 5 4 5 4 4 4 4 4 3 3 2 2 2 1 0 1 2 1 1 3 3 3 3 4 4 3 4 4 3 5 5 5 5 5 5 5 5 5 2 3 4 5 5 11
8 7 7 7 7 8 8 6 6 6 5 4 5 5 5 4 5 5 4 5 4 5 5 5 5 4 3 4 3 3 2 1 0 1 1 1 2 2 3 3 3 4 3 2 4 4 3 4 5 5 5 5 5 5 5 5 2 5 4 5 5 12
8 7 7 6 6 6 6 5 5 6 6 5 5 5 5 5 5 5 5 5 6 5 5 5 6 4 4 4 3 4 4 3 2 3 3 2 2 3 3 3 4 4 4 3 4 4 4 4 4 5 6 6 5 5 5 5 1 3 3 4 5 13
7 7 6 6 5 5 5 6 6 7 6 6 6 5 5 5 5 5 6 5 5 5 5 5 4 5 4 4 4 4 3 3 4 4 2 3 3 3 3 3 3 4 4 4 5 4 4 5 4 4 5 5 4 5 6 6 4 4 5 5 5 10
8 7 5 5 5 4 5 5 6 6 6 7 6 6 6 5 5 5 5 6 5 6 4 4 4 5 4 4 3 3 3 4 3 3 0 2 3 3 3 4 4 4 4 4 4 5 4 4 3 3 4 3 4 5 5 5 5 4 5 5 5 7
10 8 7 6 5 5 6 6 7 7 6 6 6 6 5 5 5 5 5 6 5 5 5 6 5 4 5 4 3 3 2 2 2 1 0 2 2 2 3 2 3 3 3 3 3 5 3 4 4 3 3 3 3 4 3 3 2 3 3 4 5 5
10 9 8 7 6 6 6 7 8 7 6 7 6 5 5 6 5 5 6 5 5 5 6 5 5 5 4 4 4 3 2 1 1 1 2 2 1 3 3 3 3 3 4 4 4 4 3 3 4 4 3 3 2 2 3 2 2 2 3 4 5 4
11 10 9 8 7 7 7 7 7 6 6 6 4 6 6 5 4 5 5 5 5 5 5 5 6 4 4 4 3 3 2 2 1 2 2 2 3 3 1 2 2 2 2 2 4 4 3 3 4 5 3 3 2 1 2 2 2 2 3 3 4 4
11 10 11 9 8 7 6 5 6 6 6 5 5 5 5 5 5 5 4 4 3 3 3 4 3 3 2 2 2 2 1 2 1 1 2 2 3 2 1 3 3 2 3 3 3 4 3 3 3 5 4 4 2 2 2 2 3 3 3 4 5 5
10 10 10 8 7 6 5 5 5 5 5 5 5 5 5 5 6 6 5 4 4 3 3 4 4 3 3 4 2 1 1 1 1 0 1 1 2 0 1 2 2 3 3 3 4 4 3 4 5 4 4 4 3 3 2 3 4 5 4 4 5 5
3 7 7 6 7 7 5 5 5 4 5 5 5 5 4 6 6 4 3 3 3 4 4 5 4 4 4 5 5 4 2 1 1 1 0 2 0 1 1 2 2 4 3 4 3 4 3 4 4 5 5 3 4 4 3 4 3 3 4 4 3 4
2 1 4 6 6 8 6 5 5 5 3 4 5 4 3 4 4 3 3 2 1 2 3 3 2 0 0 1 4 4 3 2 1 1 1 0 2 2 2 3 2 2 3 4 3 4 3 4 4 4 4 4 4 3 4 4 4 4 5 3 4 5
3 1 4 4 5 4 7 6 4 4 5 5 5 4 3 3 3 4 4 3 2 2 2 2 1 1 1 2 2 2 1 1 1 1 1 2 2 1 1 2 3 2 3 2 2 3 4 4 4 4 4 4 5 4 5 6 5 5 3 3 5 5
4 3 3 6 5 4 5 6 5 4 4 6 4 3 3 3 4 3 3 2 1 2 2 3 2 1 4 2 2 2 2 1 2 2 1 1 1 0 1 2 2 1 0 1 2 4 5 5 4 5 5 5 5 5 6 6 5 5 5 5 5 5
7 6 5 4 3 5 7 6 4 4 5 5 4 4 3 4 4 3 3 2 1 1 2 2 2 2 4 1 1 0 1 1 2 1 0 0 1 1 1 2 1 2 2 1 2 3 5 5 5 5 5 5 5 5 6 5 5 5 5 5 5 6
5 8 6 2 1 5 5 6 6 3 5 4 3 4 4 4 3 3 2 2 2 2 2 1 2 1 1 1 2 2 2 1 2 1 0 1 0 1 0 0 0 0 2 3 1 3 3 4 3 3 4 5 5 5 6 4 4 4 5 5 6 5
8 8 8 6 4 6 5 4 2 4 4 2 4 3 4 3 2 1 3 3 3 2 2 1 0 0 1 1 1 1 1 3 4 3 1 2 0 0 1 1 0 1 1 2 2 3 4 1 2 4 4 4 6 5 4 4 4 3 3 5 4 5
7 6 7 4 4 3 3 4 4 3 3 3 3 4 4 3 4 2 3 2 2 2 2 2 0 2 2 1 0 1 4 3 2 2 0 0 2 2 3 2 2 2 1 1 1 2 4 4 4 4 6 6 5 5 4 2 2 6 9 6 4 4
5 5 7 3 3 3 2 2 4 3 5 4 2 2 3 2 1 1 1 0 2 2 2 2 2 1 1 3 2 2 2 1 0 0 2 3 3 4 3 3 2 1 3 2 1 2 4 3 2 3 1 1 4 7 6 5 3 8 7 6 4 4
5 6 7 6 3 3 4 4 5 6 5 3 3 4 3 2 2 1 0 1 3 3 2 2 0 1 1 1 1 1 1 2 2 2 2 3 5 6 6 5 4 2 1 2 3 2 2 3 3 3 5 1 2 1 5 3 7 7 2 3 5 6
8 8 7 8 7 5 6 6 6 6 6 7 5 4 3 2 1 1 0 1 2 3 3 2 0 1 2 2 1 1 2 5 5 5 5 7 7 7 6 5 5 4 3 1 3 1 2 4 3 1 1 2 3 3 1 4 7 6 4 6 5 4
8 8 7 8 9 7 6 7 7 7 6 4 6 5 6 7 5 4 3 2 2 2 3 2 1 0 0 1 5 5 4 5 7 8 7 6 6 7 7 7 5 4 5 3 0 2 3 3 3 1 2 1 1 1 4 4 2 5 3 5 4 4
7 7 8 7 7 7 6 6 7 7 6 7 7 4 2 2 3 3 3 4 2 2 2 3 1 1 3 4 5 7 8 8 7 7 6 7 7 6 5 5 4 6 4 3 4 3 3 4 5 3 5 3 1 1 1 2 3 5 9 3 1 4
5 6 7 7 6 5 7 5 4 4 4 5 5 4 5 4 3 3 4 4 3 2 2 2 3 4 4 6 7 8 8 8 8 7 7 7 6 5 6 6 5 5 6 6 5 5 5 6 5 5 5 7 6 5 4 0 1 1 6 9 9 3
7 7 7 6 5 4 4 5 6 4 5 3 4 4 4 4 5 3 5 3 4 3 4 4 4 5 6 7 7 7 7 7 7 6 6 6 6 6 6 6 7 8 7 7 6 4 6 6 6 5 5 6 5 6 4 3 3 5 3 5 8 6
9 8 8 7 6 5 4 4 4 5 6 6 6 5 5 6 5 4 6 5 5 5 5 5 4 5 7 7 7 7 7 7 6 5 6 5 5 6 6 6 5 6 6 7 5 6 6 5 5 5 5 4 6 5 4 5 4 7 3 3 6 9
9 9 9 8 7 6 5 5 5 6 7 8 7 7 7 6 6 5 6 5 5 5 4 5 5 6 6 6 6 6 6 5 5 5 6 6 5 5 4 5 5 6 7 7 6 6 6 6 5 6 7 6 6 6 4 5 5 6 6 5 7 7
12 11 10 9 8 7 6 6 5 6 7 7 8 7 8 9 7 7 6 7 5 5 5 5 4 5 5 4 5 5 5 5 6 6 6 4 4 4 4 5 6 6 6 6 5 6 6 7 7 6 6 5 5 5 5 5 5 5 5 6 7 7
15 13 11 10 9 7 6 6 7 6 5 6 6 6 6 6 5 7 7 7 6 6 5 5 4 5 4 4 5 6 6 6 5 4 4 4 4 5 5 6 6 6 6 7 6 6 7 6 6 6 5 4 5 6 6 5 5 5 5 5 6 7
12 12 11 10 8 7 6 6 6 6 5 5 6 6 5 7 6 6 7 7 6 6 6 5 5 5 4 5 5 5 5 5 4 4 5 6 6 6 6 6 6 7 7 5 6 6 6 5 5 5 4 5 5 6 6 6 6 6 7 7 6 7
10 11 11 11 8 8 7 6 6 6 5 5 7 7 6 6 7 8 6 7 6 6 6 5 6 4 4 6 5 4 4 5 5 6 7 7 7 7 6 7 6 6 6 6 7 6 6 6 7 7 7 7 6 7 6 6 7 7 7 7 7 7
10 10 10 10 9 9 8 7 7 8 7 7 7 7 7 6 6 7 6 7 7 6 5 5 3 4 4 5 4 4 4 5 6 7 7 7 7 7 7 7 6 6 7 5 7 8 6 6 7 8 8 7 7 7 8 7 7 7 7 6 6 6
11 9 10 11 11 10 9 9 8 8 7 7 8 8 8 8 8 6 6 6 6 5 4 4 5 4 6 5 5 5 7 8 8 7 6 6 7 7 7 6 6 5 6 7 6 7 6 6 6 6 7 9 8 7 8 7 7 7 6 6 5 5
Wind_Direction
153 151 146 147 146 148 155 154 147 145 146 146 146 150 156 156 151 152 151 155 157 145 145 166 160 172 173 174 185 181 175 173 177 176 187 197 205 213 231 244 276 295 309 312 316 316 320 318 319 318 310 308 317 335 72 15 329 117 157 176 180 199
151 151 149 148 147 149 154 147 143 144 148 151 154 156 158 153 155 143 157 159 147 160 166 168 175 188 178 192 200 196 191 182 183 181 194 212 215 232 244 257 270 285 287 288 289 305 310 313 313 312 313 316 319 309 116 223 242 147 166 174 185 214
156 152 152 148 143 147 144 139 144 147 151 156 162 156 151 156 132 153 156 153 161 172 178 195 195 200 189 199 201 195 198 202 199 200 202 232 247 249 260 266 270 266 259 265 286 298 292 294 297 300 305 311 308 300 302 157 241 207 174 184 192 213
156 154 149 145 141 143 144 149 148 149 154 161 156 147 155 145 155 160 165 161 168 184 187 196 217 206 197 183 198 198 199 202 213 222 219 242 275 279 272 283 284 287 299 319 310 286 287 285 285 287 290 289 289 290 288 274 196 236 181 190 199 214
158 154 148 144 145 148 148 149 149 150 155 156 144 147 158 159 166 166 168 176 180 193 187 199 225 238 167 161 186 189 228 204 43 346 305 327 332 320 318 315 310 317 308 306 298 290 306 301 296 298 291 284 277 276 283 281 226 237 211 197 191 207
155 154 150 150 151 152 150 152 150 153 156 157 150 165 169 173 173 173 177 187 195 205 195 196 212 225 175 166 186 192 203 200 208 241 245 232 257 262 283 290 283 278 270 259 266 269 266 265 275 273 275 275 270 273 277 283 322 261 232 214 197 201
154 149 147 145 147 147 148 140 141 157 163 168 168 172 186 186 185 181 186 192 199 209 205 192 204 201 182 172 191 199 192 190 216 228 226 204 244 239 226 245 260 269 278 283 276 263 263 258 253 270 267 261 262 263 259 265 281 271 246 224 214 199
149 146 149 150 148 133 137 142 156 168 173 179 175 186 195 197 188 188 191 200 204 207 199 188 180 186 188 174 197 204 188 184 216 237 215 205 229 251 249 238 243 263 272 266 270 274 260 265 263 249 265 267 259 257 256 251 229 221 211 213 222 208
148 144 144 146 147 134 144 150 164 177 179 186 185 198 201 197 191 196 200 200 199 205 202 180 178 191 167 178 168 154 165 191 205 238 205 213 210 245 252 236 234 250 256 263 262 273 273 269 278 275 245 254 255 262 266 257 242 204 190 202 216 220
149 146 146 150 159 157 163 167 180 184 185 188 195 202 198 199 196 178 210 212 189 187 180 178 184 174 150 152 162 139 141 173 190 260 284 258 223 231 261 260 246 252 256 258 265 263 262 261 245 224 204 210 231 243 261 274 235 188 198 198 214 230
145 148 152 158 168 172 175 184 187 187 185 195 197 195 201 205 177 184 203 185 164 166 165 157 149 162 149 150 141 155 148 159 144 172 212 254 229 221 225 216 208 208 209 208 222 221 224 289 314 315 312 319 280 226 256 253 215 187 188 208 216 222
144 151 155 162 172 180 190 193 189 190 193 200 179 193 205 200 174 193 201 171 163 155 147 151 142 157 159 152 147 133 132 91 56 7 6 345 318 313 308 292 319 311 303 350 337 332 327 325 310 301 304 299 323 305 245 231 248 233 218 215 226 235
149 156 159 165 178 187 193 192 189 196 202 186 182 192 197 191 176 189 189 163 160 153 146 134 130 138 121 90 91 99 112 108 92 27 350 330 307 292 16 3 341 354 360 10 3 325 316 315 304 308 317 301 310 290 220 215 236 238 235 220 218 226
150 157 162 163 176 189 192 194 191 188 192 183 185 177 190 179 178 183 174 162 155 158 149 124 126 116 133 127 116 125 136 119 163 133 17 310 274 325 12 356 322 3 353 358 315 290 313 322 313 310 306 292 290 252 221 243 245 238 238 230 220 225
124 158 153 158 178 194 187 179 172 169 185 176 157 149 157 171 177 166 132 150 161 157 137 120 129 163 179 154 142 154 185 203 151 110 153 232 203 297 356 326 355 339 314 312 304 301 321 310 314 310 303 314 297 291 286 264 259 255 238 237 218 229
247 114 145 167 182 185 172 161 159 168 119 97 104 120 143 145 128 105 107 99 97 67 70 99 128 44 3 224 149 159 184 182 151 138 189 241 51 343 320 343 312 229 265 291 318 307 324 317 312 302 297 302 290 288 284 282 271 260 247 230 228 233
165 290 164 169 153 155 145 155 141 109 121 112 107 109 99 113 96 87 79 66 71 106 130 144 84 23 267 249 150 126 191 183 130 99 77 31 22 302 308 290 287 224 190 242 281 297 312 306 301 295 298 301 296 297 293 281 278 266 262 244 245 240
145 125 265 162 147 151 116 97 95 115 117 105 98 99 98 76 66 64 74 87 97 138 129 98 79 282 264 226 148 140 146 112 78 72 50 40 292 253 204 185 249 284 189 205 295 298 295 295 291 294 299 294 293 295 284 286 282 282 268 259 248 247
122 81 349 358 98 100 96 93 86 92 88 93 91 80 69 76 63 70 92 118 140 84 70 108 166 241 254 254 91 339 99 108 118 134 150 272 266 35 59 108 161 285 305 245 236 266 268 281 295 294 293 288 290 287 287 285 290 291 281 266 261 252
130 138 147 203 169 105 106 119 117 82 86 80 94 105 75 82 73 89 126 150 153 136 133 164 205 242 303 0 56 8 4 27 62 109 121 231 240 86 82 62 310 259 325 334 293 271 293 307 298 295 291 300 295 294 298 304 304 291 286 279 271 278
163 149 144 161 180 144 131 114 95 136 129 112 122 108 98 89 85 151 186 189 169 141 137 154 226 223 192 110 80 206 156 56 46 78 98 124 197 238 188 168 169 87 45 20 323 330 333 312 355 324 328 313 309 300 302 321 308 292 301 289 280 286
154 149 131 169 177 169 134 154 146 148 124 121 116 124 124 128 163 190 204 196 129 144 158 139 41 316 342 355 277 330 52 66 66 45 328 175 74 87 54 60 66 27 25 32 300 334 331 6 13 349 328 327 324 319 317 335 349 349 347 319 303 288
128 141 128 132 171 150 101 105 124 132 124 114 65 84 111 139 147 162 216 216 107 108 82 40 72 77 248 204 140 68 85 169 87 81 20 33 46 41 40 36 76 87 347 6 324 313 1 56 345 304 279 36 335 356 334 351 351 344 320 322 315 300
153 159 133 121 134 97 104 102 89 107 89 81 132 114 86 90 87 81 61 49 83 99 86 68 10 295 306 349 45 86 7 47 16 359 349 36 27 26 25 27 56 73 104 23 358 318 353 33 66 25 1 328 258 69 334 318 322 308 305 298 329 321
158 154 140 134 134 129 114 98 98 86 91 90 74 82 102 110 138 150 141 59 96 101 106 114 231 292 315 321 327 4 35 40 36 36 51 47 47 41 38 37 35 55 60 103 11 314 316 1 31 50 118 14 351 15 256 281 330 298 337 346 317 313
150 154 136 137 139 140 142 138 136 138 142 136 139 152 173 171 166 176 173 114 91 91 110 116 91 221 278 21 48 51 63 66 53 48 49 57 53 47 39 38 28 47 45 5 126 48 346 328 355 56 95 139 183 232 312 312 23 306 314 273 273 299
145 139 130 127 138 141 139 151 163 172 166 161 157 184 134 113 148 149 136 128 132 104 108 111 100 12 43 56 64 57 56 56 54 51 44 49 45 40 33 33 19 39 30 19 38 39 11 325 336 2 1 7 16 286 273 336 318 312 320 323 346 319
121 117 120 130 135 150 152 156 166 171 157 151 156 150 142 135 138 142 135 133 128 121 113 88 67 55 61 66 64 59 57 56 57 50 51 50 49 37 40 31 35 42 48 43 37 44 34 25 41 357 352 9 1 2 359 299 237 281 299 310 312 298
130 125 124 123 133 141 147 163 165 154 136 110 115 124 123 129 142 141 126 128 120 109 86 74 77 80 68 66 65 67 63 62 59 54 54 50 45 43 45 40 35 40 44 47 46 49 60 35 36 31 6 10 9 8 342 345 0 8 325 312 298 324
134 128 130 135 143 144 151 152 160 153 141 133 129 128 136 142 145 152 134 128 111 100 94 80 68 72 75 69 69 66 66 65 62 60 57 53 49 47 41 47 47 55 53 59 43 50 58 49 50 39 44 25 34 358 21 8 8 346 308 237 294 316
153 141 147 148 146 147 144 151 159 155 152 148 151 145 141 143 145 150 132 121 105 92 80 82 76 65 66 72 75 74 76 73 66 61 57 52 51 54 50 57 59 60 55 55 50 55 53 49 49 42 37 39 34 31 21 5 348 347 336 322 318 306
159 154 152 148 147 148 141 142 147 152 154 154 154 153 151 150 156 144 129 113 105 96 83 80 74 76 69 80 83 80 80 78 69 64 61 62 56 54 58 63 61 61 60 59 56 56 51 46 39 43 40 30 37 27 23 9 348 339 341 330 316 316
162 158 155 151 149 142 139 142 145 147 145 146 144 145 145 133 131 127 123 119 116 107 110 89 87 94 90 87 88 79 74 76 72 70 71 57 45 48 53 63 64 61 57 55 52 54 54 48 45 45 33 25 38 33 22 357 347 352 341 333 334 332
156 151 143 142 139 133 128 130 134 137 145 141 132 130 122 117 113 110 116 117 117 119 110 111 107 93 99 87 77 86 92 89 87 69 58 55 53 56 62 64 59 57 55 55 54 54 54 47 45 45 42 39 40 36 27 7 3 0 355 344 346 343
151 148 143 141 137 126 123 125 122 124 128 117 118 110 106 112 116 115 116 116 115 116 112 115 106 109 92 85 84 89 89 81 68 62 59 60 62 63 62 62 57 57 58 51 49 44 43 38 39 37 38 40 38 36 25 20 14 7 1 1 354 349
149 142 139 135 129 125 125 121 118 116 115 111 107 105 101 100 101 108 114 114 115 111 111 114 107 101 85 92 93 81 72 69 65 63 63 67 68 67 62 62 54 56 61 48 53 48 45 44 44 48 50 46 44 35 28 22 16 10 7 2 357 352
147 140 134 131 126 124 121 116 114 113 116 112 111 112 115 110 108 104 106 106 108 108 105 102 103 92 91 92 96 78 58 52 52 52 56 61 69 68 68 63 59 56 64 57 52 47 47 49 45 53 51 48 47 38 33 23 19 12 5 358 358 351